Location: Chuathbaluk
(61.5726°N, 159.2454°W)
Time: 05:07:03
(UTC+00:00)

Transit 4A - Pass Details

Date: 05 December 2020
Orbit: 864 x 980 km, 66.8° (Epoch: 26 January)

Event Time Altitude Azimuth Distance (km) Brightness Sun altitude
Rises 15:39:39 0° 153° (SSE) 3,653 11.4 -25.3°
Reaches altitude 10° 15:43:35 10° 130° (SE) 2,725 11.0 -24.9°
Maximum altitude 15:46:34 14° 101° (ESE) 2,465 11.1 -24.5°
Drops below altitude 10° 15:49:35 10° 73° (ENE) 2,742 11.3 -24.2°
Sets 15:53:33 0° 50° (NE) 3,693 11.7 -23.7°
